Theta_e
361 366 368 365 365 366 365 365 367 367 366 365 362 362 362 362 363 360 355 359 360 356 358 358 361 359 361 357 349 351 354 354 355 358 358 359 362 361 362 361 361 360 359 359 359 358 358 358 358 357 357 357 356 356 357 357 357 357 356 356 356 355 354 354 354 355 354 354 356 355 354 354 353 353 353 353 352 353 352 352 352 352 352 353 353
363 366 366 366 368 365 370 364 364 371 365 367 364 369 364 364 360 359 360 361 360 357 357 354 353 355 357 356 355 349 351 354 356 356 362 358 360 362 362 362 361 360 360 359 359 359 358 358 357 357 357 356 356 356 356 356 356 356 356 356 355 355 354 354 354 354 353 354 354 354 354 354 353 353 353 353 353 352 352 353 353 353 353 353 353
368 367 367 368 369 372 365 366 364 364 365 365 371 367 364 364 370 369 368 363 361 357 357 352 352 353 354 349 348 350 353 357 356 356 357 361 360 362 361 362 362 361 360 359 360 359 359 358 358 358 357 356 356 356 356 356 356 356 356 356 356 356 355 354 355 354 353 354 354 354 354 354 354 354 354 353 354 354 353 352 353 353 353 353 354
374 368 367 367 367 367 371 366 365 368 369 367 368 372 372 369 368 371 369 366 360 366 358 350 348 346 350 347 348 350 349 354 354 354 358 359 360 358 361 361 362 362 361 360 360 359 359 359 358 358 357 357 356 356 356 356 356 356 355 356 356 356 356 356 355 355 354 354 354 354 354 354 354 354 354 354 354 354 354 352 353 354 354 353 353
376 373 369 367 368 371 367 367 370 372 371 369 367 372 369 366 366 367 365 360 355 357 355 351 347 350 347 343 348 348 347 351 356 356 357 359 360 360 360 360 360 362 361 360 360 360 359 359 359 358 358 358 357 357 356 356 356 356 355 356 356 356 356 356 356 356 355 355 355 355 355 355 354 355 354 354 354 354 354 354 354 354 353 354 354
371 373 371 369 368 367 367 365 373 364 373 375 369 367 366 364 360 363 359 357 354 348 345 344 348 341 340 347 351 357 349 349 355 357 358 357 360 360 359 360 360 360 359 360 360 360 359 359 359 358 358 358 357 357 357 357 357 356 356 355 355 355 356 355 355 355 355 355 355 355 355 355 355 355 355 354 354 354 354 354 354 355 354 355 355
370 374 368 370 364 365 369 369 371 374 370 376 370 368 368 366 369 359 359 366 346 351 352 344 342 348 352 345 349 356 358 347 353 354 355 357 359 357 358 359 361 361 360 360 360 360 359 360 359 358 358 358 358 358 357 357 356 357 356 356 355 355 355 355 355 355 355 354 354 354 355 355 355 355 355 354 354 355 354 354 355 355 353 353 354
372 374 373 369 366 367 366 371 372 378 372 370 370 368 369 363 362 359 358 346 341 351 349 354 347 348 351 355 352 350 352 344 351 353 355 357 357 360 358 361 359 361 361 360 359 359 360 359 359 359 358 358 358 358 357 357 356 357 356 356 355 355 355 354 354 354 354 354 354 354 355 355 355 355 354 354 354 355 354 354 354 354 354 354 354
371 373 371 371 369 364 365 366 368 373 370 373 367 369 366 359 365 367 358 358 342 333 343 344 349 353 336 344 341 349 347 347 348 352 356 357 356 358 358 358 359 361 365 363 360 360 359 360 360 359 359 358 358 358 357 356 357 356 356 356 355 355 355 354 354 354 354 354 354 354 354 354 355 355 355 355 354 354 354 353 354 354 354 354 353
371 373 373 371 370 364 359 369 371 375 373 373 370 365 364 362 364 365 359 357 344 342 338 343 345 342 348 342 349 347 348 353 356 356 354 354 357 357 360 360 358 357 358 360 360 360 358 359 360 359 359 358 358 357 357 357 356 357 356 355 355 355 354 354 354 354 354 354 354 354 354 354 354 354 354 354 354 353 353 353 353 353 354 353 353
370 372 371 370 369 369 371 371 371 369 373 369 365 364 365 368 359 360 363 357 356 346 347 350 343 352 342 342 348 353 355 358 358 355 351 351 355 359 357 361 358 359 359 359 358 359 358 358 357 357 358 359 358 358 357 357 356 356 355 355 354 354 355 355 355 354 354 354 354 354 354 354 354 354 354 354 354 353 353 353 353 354 354 353 353
370 370 371 371 370 371 369 365 368 370 367 364 358 360 365 364 362 353 363 360 357 355 342 342 349 350 355 347 347 354 355 353 354 352 354 352 355 358 355 357 358 357 356 359 361 358 359 359 363 360 359 358 358 358 357 356 356 355 355 355 355 354 354 354 354 353 354 354 354 353 352 352 352 353 353 353 353 353 353 353 353 353 353 353 353
371 370 369 369 371 372 369 368 368 368 368 367 361 360 364 366 364 368 356 354 354 351 346 356 352 354 350 351 348 355 356 356 356 347 346 346 352 355 354 355 356 356 356 357 357 357 360 360 360 356 360 356 357 358 357 357 356 356 356 355 355 355 354 355 355 354 354 353 352 351 351 351 351 351 352 352 352 352 352 352 352 353 353 353 352
371 370 370 370 368 369 370 371 369 374 371 368 366 364 365 362 361 366 364 357 354 340 338 354 348 344 340 346 359 359 356 345 342 342 342 345 350 354 354 350 349 351 353 356 355 354 355 357 359 357 359 358 358 358 358 357 356 356 355 355 356 355 355 354 355 353 353 352 353 353 352 352 352 352 353 352 352 352 352 352 351 352 352 351 351
370 370 369 368 369 369 369 373 370 373 372 369 370 366 367 360 360 359 357 355 360 354 359 351 345 352 354 348 342 336 348 356 347 345 343 344 348 344 346 345 347 349 352 354 354 354 354 356 357 358 358 356 355 356 357 356 356 356 355 356 356 356 355 355 354 354 352 352 353 353 352 352 352 351 351 352 351 352 352 352 351 351 352 352 351
366 367 367 369 370 369 369 371 372 372 371 369 368 364 366 364 362 360 356 350 347 347 352 355 349 357 341 340 342 338 335 341 348 354 342 343 343 341 344 344 346 349 354 346 345 350 354 357 357 358 359 357 356 356 355 353 356 357 357 356 355 355 353 352 348 345 345 348 348 347 347 350 350 350 350 350 349 352 351 352 351 351 351 351 350
367 367 366 369 370 371 371 372 374 373 371 370 367 365 363 362 361 364 355 354 346 343 346 351 355 359 352 347 340 338 336 337 335 346 345 341 341 340 349 342 341 352 340 341 347 348 348 352 356 358 357 356 355 353 352 353 354 356 355 356 353 352 351 348 348 346 344 346 346 345 345 344 344 343 346 347 348 348 349 349 349 350 349 348 349
368 367 364 368 370 371 372 370 372 374 372 371 368 368 365 363 362 361 357 354 351 351 347 367 359 362 356 352 349 343 341 342 339 336 353 350 348 340 341 341 344 349 353 353 347 345 348 349 354 353 354 353 352 348 351 353 356 354 354 354 352 349 348 347 343 343 343 344 344 344 344 345 345 346 345 346 343 343 345 343 345 345 344 345 344
364 366 366 368 371 371 372 371 371 372 373 374 369 366 362 362 358 361 359 363 358 359 345 346 357 359 352 345 350 352 347 349 341 339 338 349 351 342 337 340 341 342 343 340 340 343 345 345 345 350 351 348 347 349 350 350 352 352 355 353 351 350 347 344 345 343 342 343 343 344 345 344 345 345 346 344 343 343 343 344 344 344 345 344 342
364 367 367 368 370 371 372 372 370 368 372 371 370 368 366 363 362 356 365 365 358 353 351 343 346 347 353 354 351 355 354 350 355 350 343 338 340 342 340 338 339 339 338 340 339 339 344 346 341 342 346 345 344 348 347 345 345 344 345 345 345 348 348 348 347 346 344 343 342 341 343 344 343 342 339 342 344 342 342 343 342 342 343 341 339
367 367 368 368 370 371 372 372 370 370 371 370 369 368 367 365 364 360 360 363 366 356 352 359 340 344 349 348 352 353 348 352 355 356 351 339 338 334 339 339 338 338 344 339 340 342 343 346 342 341 347 345 346 343 342 342 342 342 344 344 343 343 346 347 346 346 345 344 344 343 341 341 342 341 342 339 341 342 341 341 340 340 341 341 340
367 370 368 369 371 371 370 370 370 367 371 367 366 367 368 365 364 361 361 359 360 359 356 354 355 360 351 351 350 352 355 347 346 350 347 345 341 331 335 340 338 350 341 340 341 339 338 343 342 340 342 344 348 342 341 340 342 342 340 346 345 343 345 344 345 345 344 344 343 342 340 340 339 341 340 341 341 340 340 338 340 340 338 339 339
363 368 369 368 369 369 366 368 370 370 370 369 368 364 363 363 364 363 361 361 358 357 356 355 361 364 353 355 349 348 346 344 342 342 344 343 342 336 331 333 330 339 344 342 345 339 339 339 335 338 342 342 348 346 345 343 346 344 347 350 348 346 344 342 344 345 348 346 345 344 344 340 339 340 340 340 341 341 342 342 343 343 343 343 342
367 365 364 364 368 369 369 369 370 371 370 372 371 367 364 364 366 365 360 362 361 359 355 355 355 358 355 350 353 350 349 347 344 347 355 346 343 341 344 357 347 339 349 363 347 343 339 339 340 342 341 342 346 344 348 350 346 351 348 350 349 349 348 345 345 342 346 349 348 346 344 344 342 339 339 340 340 340 341 342 342 343 343 343 343
367 365 364 364 367 369 368 368 370 370 370 371 371 370 368 365 366 364 362 359 361 359 356 353 351 358 356 357 348 346 351 350 353 352 345 347 352 346 340 343 345 341 348 343 346 349 345 347 347 341 342 348 347 351 349 348 348 349 345 350 350 348 350 350 347 348 348 349 349 345 344 345 345 344 343 343 342 343 343 343 343 344 344 344 344
365 364 363 363 365 369 369 369 372 372 371 371 372 371 371 367 364 362 361 360 360 359 357 353 354 356 358 357 352 347 349 351 348 347 348 342 345 343 344 346 343 340 343 346 348 341 343 342 348 345 349 345 348 350 350 348 346 350 346 340 344 345 348 347 349 347 349 349 349 347 344 345 345 344 344 344 345 345 345 345 345 345 345 346 345
364 367 367 366 364 368 371 369 370 371 371 372 371 371 371 368 365 364 360 363 359 358 357 354 349 349 355 357 357 356 349 354 342 345 345 348 341 345 345 342 337 341 345 348 343 343 337 343 339 347 346 351 351 348 351 348 349 350 349 342 337 345 342 345 344 346 346 348 349 348 346 347 346 344 344 346 347 347 347 347 347 347 347 347 348
367 369 367 367 366 367 369 369 370 370 370 371 370 369 370 368 366 365 363 361 359 358 358 355 350 351 350 354 355 350 356 353 352 347 340 345 351 346 348 346 341 335 340 339 340 340 338 339 342 347 344 352 350 352 354 348 349 353 353 348 346 339 342 341 342 342 344 345 347 349 349 348 348 347 347 347 348 348 348 348 348 348 348 347 347
368 369 368 367 369 368 368 366 370 370 371 371 370 370 370 368 365 365 361 359 360 358 357 356 354 350 350 351 354 353 357 361 352 355 347 344 358 358 361 347 341 340 335 332 337 335 337 333 335 344 348 350 350 351 350 349 353 351 347 345 348 348 341 339 340 341 342 343 344 346 347 347 347 348 348 348 348 348 348 348 348 348 348 347 346
366 365 367 367 367 371 368 368 369 370 369 369 370 370 371 368 367 366 363 363 362 360 358 356 355 354 352 351 352 353 354 355 359 354 362 352 354 361 354 353 351 340 341 339 338 338 345 336 334 344 355 349 354 354 355 354 354 349 348 347 346 344 343 340 341 342 342 343 342 341 344 345 345 345 345 345 346 346 347 347 347 347 347 347 347
363 366 366 367 367 368 369 368 369 369 370 370 370 369 370 368 366 366 365 365 364 360 358 356 354 354 352 349 351 351 353 350 353 352 352 356 354 354 354 352 350 346 343 342 336 346 342 349 338 344 347 349 345 347 350 352 355 350 347 349 349 351 344 344 343 343 342 341 340 340 339 339 339 340 341 341 342 343 344 345 345 345 345 345 345
362 363 367 366 367 366 366 365 365 367 368 368 369 370 369 368 365 364 364 365 363 361 357 356 354 355 353 350 352 352 353 352 352 353 352 356 352 351 350 350 350 349 348 345 340 340 350 344 354 346 346 346 350 346 344 347 355 352 348 352 358 348 351 348 344 342 341 340 339 339 336 335 336 338 339 340 340 342 343 342 342 342 342 342 343
363 361 362 364 366 366 363 363 362 364 366 366 368 368 368 367 367 365 364 365 363 362 359 356 354 356 354 351 350 354 355 352 351 351 350 351 351 350 349 351 347 348 346 344 340 340 347 355 352 348 345 347 344 348 349 345 350 347 350 350 355 348 350 350 348 343 341 338 337 337 336 335 335 336 338 339 339 342 342 343 342 340 340 339 339
364 361 361 360 364 367 366 366 365 365 367 367 367 367 367 367 367 365 363 364 363 362 360 357 356 355 357 353 350 351 354 352 351 349 349 346 347 345 346 345 345 345 348 344 341 341 339 350 348 349 351 348 348 343 345 345 348 348 347 349 350 351 349 348 348 347 341 338 335 334 335 334 334 335 335 337 338 339 339 339 339 337 337 337 335
364 364 363 360 362 366 367 367 367 366 367 366 366 366 367 367 366 364 362 363 363 361 360 358 357 356 355 355 351 350 352 351 350 349 348 348 347 345 345 344 345 344 348 347 344 339 339 343 348 345 343 351 346 346 345 350 351 351 347 348 347 347 347 347 347 345 342 338 335 333 333 333 334 334 334 336 336 335 336 334 333 333 332 331 329
363 364 365 364 364 365 366 367 367 365 365 366 365 365 366 367 367 366 364 363 363 363 361 359 357 357 355 355 353 350 349 349 350 349 348 348 349 348 346 346 346 346 348 347 346 344 343 339 347 344 346 342 347 350 353 351 345 348 350 349 349 348 347 349 346 344 346 337 336 334 333 333 332 332 331 332 332 331 329 328 328 329 328 327 327
360 364 364 366 367 366 365 366 367 367 365 366 365 363 365 367 367 366 365 363 363 363 363 361 360 358 356 355 355 353 350 348 350 348 348 347 347 349 346 346 346 347 348 349 345 346 345 342 343 348 351 347 348 347 347 346 348 348 351 346 348 348 347 344 345 346 346 334 336 334 332 332 332 332 331 331 330 329 328 327 327 327 326 326 325
360 361 365 364 365 367 366 366 367 368 367 366 365 365 364 365 366 367 365 363 363 364 363 362 361 359 357 356 356 355 352 349 349 349 348 347 347 346 347 346 346 347 347 349 349 345 344 344 344 344 348 346 347 347 346 344 345 343 344 348 349 349 349 347 343 344 350 341 342 339 334 333 332 331 331 332 331 329 329 328 327 326 325 323 320
360 357 362 364 364 367 368 367 366 367 368 367 366 366 365 365 366 366 365 364 362 363 364 362 361 360 359 358 357 356 354 352 350 349 349 348 347 346 348 348 347 346 346 346 350 347 344 342 343 344 346 346 345 345 348 349 345 345 343 341 342 346 347 347 346 347 344 346 342 340 340 339 337 336 329 327 330 330 330 328 327 325 324 321 318
362 359 358 363 365 365 367 368 368 367 367 367 367 367 367 366 365 366 366 365 363 362 363 363 362 360 359 359 358 358 357 356 353 351 351 349 348 347 348 349 348 347 345 345 345 346 345 343 341 340 341 344 345 344 351 347 344 343 344 344 340 341 344 347 346 347 347 348 346 343 340 339 337 333 329 328 330 330 330 329 330 330 327 323 321
363 362 360 359 364 364 365 368 369 368 367 366 367 367 367 367 366 365 367 366 365 363 362 362 362 361 360 359 359 359 359 353 345 346 346 344 349 347 348 349 348 347 346 346 345 344 344 343 342 343 342 339 341 343 341 342 339 338 343 343 341 344 346 346 348 349 354 350 350 350 348 345 344 346 346 341 338 333 333 332 334 335 330 324 323
364 366 364 360 360 365 365 367 369 369 367 367 357 344 349 366 366 364 365 366 365 363 362 361 362 362 360 359 359 349 344 343 341 338 337 336 339 347 349 349 347 347 346 345 345 344 343 341 341 341 338 339 339 340 341 342 344 345 344 344 340 342 345 344 347 352 353 348 347 345 348 351 344 344 344 342 345 347 341 339 336 338 334 327 326
362 366 366 362 357 361 366 366 368 368 368 365 343 336 338 344 362 365 363 365 366 364 362 362 361 361 361 360 360 355 346 341 345 335 336 333 334 338 342 343 345 348 346 345 344 344 343 342 342 340 339 338 339 340 340 342 343 344 342 344 343 342 340 338 335 345 355 349 346 343 342 345 343 340 343 343 343 342 340 342 337 335 330 328 327
362 365 366 365 362 358 362 366 366 367 368 350 336 335 336 337 344 364 364 363 365 364 362 360 361 361 361 361 360 359 359 356 354 348 339 334 332 333 336 339 339 341 343 346 344 343 344 342 341 340 339 338 339 340 340 340 340 342 344 344 343 342 339 338 338 336 348 349 343 340 339 346 346 342 339 341 341 340 337 335 331 332 329 327 327
362 363 366 366 365 363 360 364 366 368 368 347 333 332 334 334 336 350 365 363 362 363 363 361 359 360 360 360 360 359 358 345 351 355 350 345 331 330 332 337 338 336 336 338 342 346 346 344 342 341 340 340 340 341 342 342 344 341 343 342 343 344 343 341 340 340 347 349 344 341 337 341 343 340 337 341 340 339 337 331 330 330 328 327 326
363 363 364 366 366 366 364 363 365 368 369 348 331 329 330 331 333 340 364 364 363 363 364 363 360 359 360 360 358 357 357 358 356 357 355 350 347 341 340 344 348 344 335 333 335 339 345 346 345 342 344 344 341 343 346 346 344 341 342 341 343 343 341 339 342 344 350 350 343 340 336 339 340 336 332 334 341 341 339 333 327 327 326 325 325
362 363 363 364 366 366 365 364 363 365 369 343 328 326 326 327 330 332 362 364 363 364 365 365 364 361 360 361 360 358 357 358 358 356 357 353 350 346 344 343 346 348 346 344 343 345 346 346 347 347 347 347 346 349 350 348 345 347 347 345 345 344 346 347 346 348 346 347 346 340 332 336 339 335 335 336 338 334 337 327 325 326 326 324 324
363 366 366 365 364 365 367 366 362 362 364 336 327 325 325 325 327 343 358 362 362 363 364 364 365 365 363 361 360 359 358 357 347 334 344 356 353 349 345 345 345 347 348 341 338 340 346 347 346 347 347 349 341 349 349 349 349 352 350 349 349 347 344 340 336 341 339 344 345 340 334 333 337 333 335 337 337 334 342 333 324 326 324 322 323
363 364 365 364 365 365 365 366 365 363 363 340 323 323 322 323 326 349 358 361 362 361 362 364 365 365 365 364 362 360 360 358 343 330 332 338 355 351 348 347 347 346 347 349 336 331 332 332 332 333 333 334 332 331 330 332 348 348 347 342 341 344 340 336 336 336 336 338 342 342 336 332 336 334 332 335 335 334 331 333 334 324 322 320 320
361 364 365 366 367 367 365 365 366 365 366 347 318 319 319 321 330 352 357 359 361 361 360 361 364 365 366 353 361 363 361 360 337 326 328 338 355 354 350 348 346 346 346 348 349 342 328 328 328 330 329 329 331 330 330 332 335 342 345 339 341 341 337 336 333 334 335 335 337 341 334 332 335 333 331 333 335 332 329 328 335 326 322 317 317
363 365 366 366 367 368 366 366 354 363 366 353 318 317 317 318 328 353 359 359 360 360 360 360 361 362 365 358 348 351 355 352 334 325 324 334 355 355 352 350 347 346 346 348 347 346 342 338 338 337 338 333 339 340 341 334 339 348 346 345 343 339 336 335 334 335 331 333 337 340 332 332 330 333 330 328 323 328 328 334 332 329 326 326 324
Wind_Speed
5 3 3 3 3 1 2 2 1 2 4 3 5 4 4 3 3 2 2 5 5 4 5 5 5 3 4 9 10 4 3 4 4 4 2 6 6 10 14 13 12 12 11 11 11 10 9 8 8 8 8 8 8 7 7 8 7 7 7 6 6 6 5 5 5 4 4 5 6 5 5 5 4 3 3 2 2 2 2 2 3 3 3 3 2
3 3 3 1 2 2 1 0 2 2 1 2 4 2 3 3 2 7 7 5 5 4 4 5 5 5 4 3 12 13 12 9 8 5 4 5 6 7 15 14 13 12 11 11 11 11 10 8 8 7 7 7 8 7 7 7 7 7 7 6 7 6 5 4 4 3 3 3 5 5 4 4 3 3 2 2 3 3 2 3 4 4 5 4 4
2 3 2 3 2 0 2 1 2 1 4 4 0 2 1 2 1 1 1 3 4 4 4 5 6 7 8 8 7 9 11 8 8 6 5 3 5 6 8 14 13 12 11 11 10 10 10 9 8 8 7 7 7 7 7 7 7 6 6 7 6 5 4 2 3 3 3 3 3 3 3 3 3 3 3 3 4 4 4 3 4 5 4 5 4
1 2 4 1 2 2 2 1 3 3 3 3 1 2 3 2 2 1 2 4 5 3 3 4 5 7 5 7 4 3 9 10 9 7 5 4 5 5 5 6 11 12 11 11 10 9 9 9 9 8 8 7 6 6 6 6 6 6 6 6 6 5 3 3 3 2 1 3 3 4 4 4 3 3 3 3 4 5 5 5 5 5 5 5 5
2 2 4 1 3 1 2 3 0 2 1 0 1 3 4 2 2 2 4 3 4 1 4 3 4 3 4 6 4 4 7 9 8 8 7 6 5 5 4 6 6 10 11 10 11 9 8 8 8 8 9 8 7 6 6 6 6 5 5 5 5 4 4 3 3 3 2 2 2 3 3 4 4 3 4 5 5 5 5 5 6 6 5 6 6
3 2 0 3 2 4 2 3 1 1 2 1 3 3 3 2 1 4 3 4 2 3 4 4 3 5 4 2 3 1 5 10 8 7 7 7 6 6 5 5 5 5 6 10 10 10 10 8 8 8 8 8 7 7 7 6 6 6 6 5 5 4 4 4 4 3 3 3 2 2 2 3 4 4 4 5 5 5 6 5 5 6 5 5 6
2 3 2 2 1 1 1 1 3 2 4 2 1 2 2 3 2 3 2 1 0 3 3 4 5 2 3 3 1 2 0 9 9 8 6 5 6 6 5 6 3 5 5 5 7 10 9 8 8 7 7 7 7 7 7 7 7 6 6 6 5 5 5 5 4 4 4 5 5 5 4 4 4 4 4 4 5 5 6 6 6 5 5 5 5
3 3 2 2 2 3 1 2 4 1 2 3 2 2 1 3 3 3 3 4 4 2 4 0 2 2 1 1 2 4 3 5 10 8 7 5 4 5 5 4 4 4 6 5 5 6 9 9 8 7 7 7 7 7 6 6 6 6 6 6 5 5 5 5 5 5 5 5 5 6 6 5 5 5 5 5 5 5 5 7 6 6 6 6 6
4 3 2 2 1 2 1 4 5 1 4 1 1 3 3 2 3 2 2 3 4 6 1 3 2 1 4 2 4 3 5 4 5 6 7 5 5 5 5 6 5 6 3 4 4 5 7 9 9 8 7 7 7 6 6 5 5 4 4 4 4 4 4 4 4 4 5 6 6 7 7 7 6 6 6 6 6 5 5 6 7 7 6 6 6
4 3 3 2 2 6 9 4 4 2 2 0 1 3 1 3 1 3 2 4 4 4 5 4 3 3 3 7 5 5 4 4 3 7 5 6 5 4 3 4 5 5 3 3 5 5 4 6 9 8 8 7 7 6 4 3 3 4 3 3 3 3 2 2 3 3 4 5 6 6 7 6 6 7 6 7 7 6 5 6 7 6 6 6 6
5 4 3 3 2 3 1 2 3 4 1 2 1 3 1 1 2 2 3 2 3 3 1 2 1 1 6 7 5 5 3 2 2 2 6 6 6 5 4 3 4 6 5 4 5 5 6 4 4 4 5 8 7 7 4 4 3 3 3 3 3 2 2 3 4 4 3 4 5 5 5 5 5 6 6 6 7 6 6 7 6 6 7 6 6
5 5 4 3 2 2 2 2 3 4 2 3 3 1 2 1 2 3 1 1 2 2 3 1 3 4 1 6 4 1 2 2 2 2 3 8 5 3 4 4 3 4 5 2 2 5 5 5 3 3 3 6 7 6 6 5 3 2 3 3 3 3 3 2 1 2 2 3 3 2 2 3 3 5 6 6 6 5 5 4 5 5 6 7 6
5 5 5 4 3 2 2 2 2 3 3 3 5 5 3 3 2 1 2 1 1 2 2 1 2 2 3 1 4 2 1 1 2 4 3 5 7 5 5 4 3 4 3 4 4 4 4 4 4 4 4 5 5 8 7 6 4 5 4 4 3 3 3 2 2 2 2 0 1 1 1 2 2 3 4 4 4 4 4 4 4 5 6 6 6
5 5 5 4 4 3 2 2 2 3 3 3 4 5 4 2 3 1 2 2 1 3 1 2 2 2 2 1 2 1 2 4 5 5 6 5 6 4 3 3 7 5 3 5 5 5 5 3 4 5 3 4 4 4 4 4 4 5 5 5 5 4 5 4 4 3 2 2 1 1 0 0 1 2 2 3 3 4 4 4 5 5 5 5 6
6 5 5 5 5 4 3 3 2 3 4 3 2 3 2 2 4 3 2 1 1 2 1 1 1 0 1 2 2 3 2 1 1 2 4 4 3 5 6 6 6 6 7 6 3 3 5 3 3 4 4 4 4 4 3 5 5 7 5 5 5 6 6 6 6 5 5 4 4 3 3 2 2 2 2 3 3 3 3 3 4 4 4 5 6
7 6 5 5 5 5 4 4 3 3 3 3 3 3 3 3 2 2 3 2 2 2 1 2 2 2 1 1 2 3 2 1 1 1 3 4 5 5 4 6 4 3 3 4 6 5 5 4 4 4 3 5 5 5 5 4 7 8 9 8 7 6 7 7 6 5 5 5 4 3 3 3 2 2 3 3 3 4 4 4 4 4 4 4 5
7 7 6 5 5 4 4 3 4 3 3 4 3 3 4 3 3 2 2 1 1 2 2 4 2 2 3 1 2 2 2 4 4 3 1 3 4 6 3 3 5 4 6 5 5 5 5 5 5 4 4 4 4 4 5 5 4 4 7 8 8 8 7 6 6 5 5 5 5 4 4 3 2 2 2 2 3 3 4 4 4 4 4 3 4
6 7 7 6 5 5 4 4 4 4 4 3 3 3 3 3 3 2 2 3 1 2 1 2 2 2 3 3 3 1 2 3 3 1 4 1 2 5 4 6 4 3 3 2 4 5 5 4 3 5 6 5 4 5 5 5 4 4 4 5 10 8 8 7 6 5 5 4 3 4 3 3 3 3 3 3 3 3 3 3 3 3 3 3 4
8 8 7 6 5 5 5 4 4 5 4 3 3 3 3 3 5 3 3 3 2 1 4 2 1 2 1 3 2 2 3 2 2 2 1 3 1 2 5 5 6 4 5 5 6 6 5 5 5 3 3 5 5 6 5 5 8 8 10 10 10 9 8 7 6 5 5 4 3 3 2 2 3 3 3 3 3 4 4 4 4 3 4 4 4
7 7 7 6 6 6 5 5 4 5 5 4 4 4 3 3 2 5 4 3 2 1 2 4 4 2 2 2 3 4 3 2 1 1 2 1 2 4 3 6 7 7 8 7 8 6 6 5 5 5 4 5 5 4 5 5 4 5 6 10 10 9 9 7 7 5 4 4 4 2 2 2 2 2 1 2 2 2 3 3 3 3 3 3 3
7 7 7 7 7 6 6 5 5 4 5 4 4 4 4 3 3 4 4 3 2 1 2 1 4 4 3 2 3 2 2 1 1 1 1 2 2 2 4 4 4 6 3 7 6 6 5 5 7 6 5 5 5 5 6 5 5 4 6 9 9 9 8 8 6 6 4 3 4 3 2 2 2 2 1 1 0 1 1 2 2 2 2 2 3
8 6 7 7 7 7 6 7 6 6 5 5 6 5 4 5 3 4 5 4 3 2 2 3 3 1 4 3 2 1 1 1 1 1 1 2 2 4 4 2 1 1 6 7 7 7 5 5 7 7 6 5 4 7 6 5 6 6 6 10 9 9 9 8 8 7 6 5 4 4 4 3 3 3 2 2 2 2 2 2 3 3 3 4 4
8 7 7 8 7 8 8 8 6 6 5 5 5 6 5 5 4 5 5 4 4 3 2 3 1 1 3 3 3 2 2 2 3 3 2 2 2 3 5 5 5 2 3 4 5 6 6 6 5 6 6 6 4 6 7 6 8 9 12 12 10 9 9 9 8 9 8 7 7 6 5 5 4 4 4 4 4 4 4 4 5 5 5 5 6
7 7 7 10 7 8 8 7 7 6 7 5 4 5 6 5 5 5 5 4 4 3 3 2 2 1 2 3 3 3 4 3 4 3 2 3 2 3 3 1 0 3 2 1 3 3 6 5 5 6 7 5 5 5 7 8 8 14 11 12 12 11 10 10 10 10 9 8 7 7 7 6 6 6 6 6 5 6 5 5 6 6 6 7 7
8 8 9 10 8 8 8 7 7 6 6 6 5 5 5 6 6 5 5 5 4 5 4 3 3 2 2 2 4 4 4 5 3 2 5 3 1 2 3 1 2 3 1 3 0 0 3 2 3 8 6 7 5 5 5 4 5 13 13 11 14 13 12 12 11 11 10 10 9 9 9 8 8 7 7 8 8 7 8 7 7 8 8 8 8
8 8 9 10 9 9 8 8 6 6 7 7 6 5 5 6 7 7 7 6 5 5 4 4 4 3 3 4 3 4 4 3 3 3 2 4 1 1 2 2 2 4 3 3 3 3 3 4 1 4 6 6 5 5 5 4 7 14 15 10 13 15 14 14 13 13 12 12 12 11 11 11 11 10 10 10 10 10 10 10 10 9 9 9 9
9 8 8 9 9 9 9 8 7 8 7 7 7 6 5 5 7 7 6 6 6 5 5 5 5 5 4 4 3 3 5 4 4 4 4 3 5 3 3 1 2 1 1 1 3 3 3 3 8 4 5 6 5 6 5 4 5 14 14 7 7 14 15 15 14 14 14 13 13 13 13 12 12 12 12 12 11 12 11 11 11 11 10 10 9
8 8 9 8 9 9 10 9 8 8 8 7 7 6 7 6 7 7 6 7 7 7 6 6 6 6 6 4 4 5 3 3 3 5 5 4 3 5 4 2 2 3 2 3 2 3 5 4 4 4 7 5 5 7 6 8 4 14 13 5 6 9 14 15 15 15 14 14 13 13 13 12 12 12 13 12 11 11 11 11 12 11 11 11 10
9 8 9 9 8 10 10 10 9 8 9 8 8 8 8 7 7 8 8 7 8 8 7 6 6 6 5 6 5 5 5 2 4 2 5 5 2 2 3 5 5 2 3 3 4 4 6 8 3 4 8 5 6 5 5 5 6 9 7 5 4 5 13 16 15 15 15 14 13 13 12 12 12 12 13 13 12 12 13 12 11 11 11 10 10
9 9 9 10 8 9 10 10 10 9 9 9 9 9 8 8 8 7 8 7 7 8 7 6 6 5 6 6 6 5 5 4 3 4 1 4 2 1 2 2 3 5 3 2 3 4 2 6 4 3 3 5 4 3 3 3 9 10 6 7 6 6 12 17 16 15 13 12 12 12 12 12 12 12 12 12 12 12 12 12 11 11 11 10 11
8 7 10 10 10 9 8 10 10 10 9 10 9 9 9 8 8 8 8 8 6 7 8 7 7 7 6 7 6 6 5 5 4 4 4 3 3 3 2 3 3 3 4 3 2 2 4 1 5 4 5 4 5 4 3 3 7 9 5 4 4 4 8 10 13 12 12 12 12 12 12 13 13 12 12 11 11 10 10 11 10 10 10 10 11
10 9 8 10 11 11 10 10 11 12 11 10 10 9 9 9 8 8 9 9 8 7 8 8 7 7 8 8 6 7 6 5 5 5 5 3 4 4 3 4 3 3 3 3 3 3 2 2 1 5 5 5 3 5 6 4 7 11 4 3 1 6 4 5 10 13 13 13 13 12 13 13 13 13 12 11 11 10 10 10 9 9 9 10 10
10 11 10 9 10 11 12 10 11 11 11 10 10 9 9 9 8 8 8 10 10 8 7 9 9 7 8 8 8 7 7 7 6 5 5 5 5 5 5 4 5 4 4 4 4 4 3 1 0 2 6 7 6 5 3 5 6 6 4 4 4 4 4 5 6 12 14 14 13 13 13 13 13 12 12 11 11 10 10 10 9 9 9 9 9
10 11 12 11 9 11 12 11 11 10 11 11 11 10 10 10 10 8 9 10 11 10 8 9 9 8 7 9 9 8 8 8 7 7 6 6 6 6 6 6 5 5 5 4 5 3 4 2 2 3 1 5 3 7 4 4 6 5 5 4 3 3 4 3 5 7 16 15 14 14 12 12 12 12 12 12 12 11 10 10 10 10 9 9 9
11 10 11 12 10 10 11 11 11 10 10 12 11 11 11 11 11 11 10 10 11 11 11 10 10 9 9 9 10 9 7 9 9 8 7 7 7 8 7 6 6 5 5 5 4 5 5 3 3 3 4 1 2 4 5 3 3 6 6 5 5 5 5 6 4 5 11 16 15 13 13 12 12 13 13 13 12 11 10 10 10 9 9 9 9
11 11 10 11 11 11 11 11 11 11 11 11 12 12 12 12 12 11 10 10 10 12 12 11 11 11 11 10 10 11 10 9 9 8 8 8 6 7 8 7 6 6 5 6 6 4 4 5 3 5 4 4 3 2 4 4 4 3 2 3 5 4 3 5 6 5 6 13 13 14 13 13 14 13 12 12 11 10 10 10 9 9 9 9 8
13 11 11 10 11 12 12 12 12 12 12 11 12 13 11 12 13 12 11 10 11 12 12 12 12 12 12 12 11 11 10 10 9 10 9 9 8 7 8 7 7 6 5 6 7 6 4 5 4 3 3 4 4 4 4 3 3 3 3 4 3 3 4 4 4 4 7 14 15 15 14 14 14 13 12 12 11 9 10 10 10 9 9 9 9
14 13 13 12 11 12 13 13 12 12 12 12 12 13 14 13 13 13 12 11 11 12 12 12 12 12 12 13 12 12 12 12 11 10 10 11 9 8 7 7 7 6 6 5 6 8 7 5 4 4 4 4 3 3 4 5 3 4 4 3 3 3 3 4 5 5 2 5 4 6 8 10 12 14 13 11 10 10 11 11 10 10 11 10 9
16 15 15 14 12 12 13 13 13 13 13 13 12 13 13 13 13 13 13 13 12 11 12 13 14 14 13 13 12 13 13 12 12 11 11 10 10 9 8 8 7 7 7 7 6 7 7 7 6 5 4 4 5 4 4 5 5 5 5 6 5 5 5 5 5 4 4 5 9 12 11 10 12 10 10 13 12 12 13 12 11 12 10 9 6
16 16 16 15 14 13 13 14 13 12 13 13 13 12 12 12 12 12 13 12 13 12 12 13 14 14 14 14 14 14 14 13 13 11 11 11 9 9 8 7 7 8 8 8 7 7 7 7 7 7 6 5 4 5 3 4 5 5 6 5 7 6 6 6 6 5 5 3 5 7 8 11 9 7 9 9 11 13 14 12 12 11 10 6 5
14 16 15 15 14 14 14 13 13 12 13 13 12 12 12 13 12 13 14 14 13 12 12 13 14 14 14 14 14 14 14 16 18 15 14 13 10 10 9 9 8 9 8 8 8 8 7 7 7 7 7 8 6 6 7 7 9 10 6 6 5 5 5 6 6 7 4 3 2 2 3 3 6 5 5 5 6 10 10 13 9 8 8 7 8
13 13 13 13 14 15 14 14 13 12 12 11 13 18 16 13 13 12 12 13 13 12 12 13 13 14 15 14 14 18 18 18 18 19 17 17 17 13 11 11 11 10 10 9 9 9 9 9 9 9 9 9 9 9 8 9 7 6 6 7 8 6 4 5 4 3 4 4 3 4 3 2 3 3 4 5 5 7 6 6 6 6 9 11 11
13 12 12 13 13 13 15 15 15 13 12 11 18 19 20 21 15 13 13 12 13 13 13 12 13 14 14 14 13 15 17 16 18 20 19 19 18 18 18 17 15 14 12 12 11 11 11 10 10 10 10 10 10 9 10 8 8 9 8 7 7 7 7 6 6 1 1 4 4 4 5 3 3 4 3 4 3 4 4 4 10 11 14 14 13
12 11 13 14 12 12 12 15 16 14 14 16 20 21 22 23 21 15 14 12 12 14 14 14 13 13 13 14 14 12 12 15 14 17 19 20 20 20 20 20 20 21 18 15 13 12 12 11 11 12 11 11 10 10 9 9 8 8 8 8 7 7 8 7 5 6 3 6 5 5 6 4 4 5 5 5 5 4 7 10 15 14 15 15 13
12 12 12 13 13 13 12 13 16 15 14 18 19 22 23 23 23 20 13 14 14 14 15 15 15 13 13 13 13 12 11 19 17 16 17 18 21 25 22 22 22 22 21 21 19 15 12 13 13 12 12 10 11 10 10 8 7 8 8 9 8 7 6 6 6 4 2 6 5 4 6 4 5 5 7 6 5 6 5 12 16 15 14 13 13
13 13 13 13 13 13 13 13 12 14 15 16 20 22 23 24 23 21 15 15 15 15 15 15 15 15 15 14 13 12 12 11 14 16 17 19 17 16 16 14 14 19 20 22 21 21 17 13 12 13 11 10 10 8 8 7 8 9 9 9 8 7 7 8 5 5 4 7 8 5 5 5 4 4 6 6 6 3 5 11 15 12 14 14 13
14 14 14 14 13 14 15 15 12 12 13 19 21 23 23 25 25 19 16 16 14 14 14 15 15 15 14 14 14 14 12 11 12 17 17 19 19 18 18 20 18 15 15 14 13 12 14 12 11 11 10 10 9 7 6 8 8 7 8 8 8 6 5 2 2 2 3 6 5 5 6 4 4 5 5 3 3 6 2 7 14 14 14 14 13
12 11 12 13 14 14 14 15 15 15 13 18 21 23 25 24 25 15 16 17 15 13 14 15 14 13 14 14 13 13 13 13 14 21 19 16 17 19 19 18 17 15 14 17 20 19 16 14 11 11 10 11 10 10 8 7 7 6 6 6 5 5 5 5 6 5 6 6 7 7 5 5 4 5 3 4 4 4 3 4 10 15 15 13 11
11 13 13 14 12 13 14 14 15 14 14 15 20 23 24 25 18 9 11 16 15 15 14 13 13 13 13 13 13 12 13 14 16 20 21 19 16 18 18 17 16 15 16 15 20 22 21 19 19 15 13 15 16 16 15 14 10 8 7 7 7 7 7 6 6 6 7 6 10 10 6 5 4 4 5 5 3 2 0 1 5 10 13 13 15
13 13 12 11 11 12 14 15 14 13 13 14 18 20 23 23 21 10 13 16 15 15 15 13 11 10 13 18 17 15 14 14 18 20 23 20 16 16 17 18 18 18 17 16 12 16 22 21 18 18 16 11 10 11 14 15 16 12 9 9 7 7 7 7 6 7 5 6 5 9 7 6 5 5 5 3 2 2 2 4 5 7 12 13 15
12 9 9 10 11 11 14 14 15 15 14 13 15 18 20 21 19 13 15 13 16 16 14 13 12 11 11 13 18 18 16 17 20 18 22 21 18 16 17 17 18 20 20 17 15 14 15 14 14 12 9 10 9 7 9 16 17 14 10 9 7 7 6 7 7 5 6 5 4 10 8 5 6 5 4 2 3 2 3 2 6 6 6 5 6
Wind_Direction
164 170 162 141 211 107 196 203 168 196 175 142 160 178 151 193 168 109 307 266 222 196 184 149 145 171 125 136 127 154 213 178 185 221 170 138 155 164 163 165 165 164 163 158 158 160 163 155 148 144 143 143 143 145 152 164 167 165 174 184 181 183 178 174 169 179 180 168 169 201 193 181 188 192 197 208 221 249 286 299 314 322 324 337 342
179 155 145 141 139 214 155 275 295 293 14 173 117 164 148 187 166 171 195 175 249 245 134 161 162 169 131 179 160 165 169 171 159 163 236 141 143 158 163 165 165 165 164 162 159 159 162 164 160 152 149 149 150 148 152 157 171 175 178 189 188 189 194 184 188 178 185 193 190 201 200 213 210 208 216 245 247 265 280 343 318 310 320 321 328
47 110 128 166 157 257 110 173 261 357 302 41 77 77 311 162 125 47 135 228 244 239 150 180 170 156 183 192 165 156 162 145 141 138 164 150 135 149 163 163 166 166 167 165 162 162 160 164 165 163 161 154 155 157 159 161 166 171 184 186 192 196 188 195 221 193 193 194 211 225 223 233 247 268 275 276 284 290 304 289 285 293 295 306 310
148 181 109 181 134 213 155 248 194 188 187 175 99 177 140 66 59 336 211 248 251 259 240 184 169 168 189 170 132 189 128 139 141 147 140 135 131 142 156 159 163 167 168 167 162 162 162 162 165 165 165 167 165 168 169 170 168 177 175 179 188 187 184 194 202 199 197 232 222 225 234 240 251 260 265 278 286 295 288 294 296 293 291 292 295
124 227 134 269 125 100 199 231 260 99 66 314 45 54 50 15 270 245 237 233 248 190 254 273 154 129 212 128 139 151 126 128 136 145 143 148 144 122 164 156 156 165 168 166 162 165 166 165 167 168 170 170 174 177 184 176 175 180 170 176 179 182 196 189 182 182 177 192 230 241 249 258 262 274 282 283 283 285 292 296 299 302 307 304 305
158 186 141 171 159 193 128 275 78 284 110 87 78 45 313 88 277 270 257 255 136 37 315 14 3 61 31 79 126 76 130 127 137 138 144 144 146 144 153 145 155 156 162 163 164 162 159 160 165 167 170 168 172 181 186 191 189 185 192 184 192 200 206 201 205 211 214 215 227 242 261 266 271 273 277 282 287 288 287 290 295 298 300 302 304
171 160 213 184 156 107 242 170 193 142 66 355 111 179 212 161 230 264 270 256 1 140 19 27 333 25 77 79 8 141 94 128 130 139 135 134 144 137 151 144 150 153 151 159 168 158 159 160 164 165 168 165 171 184 194 195 198 202 205 208 202 206 208 200 203 208 227 241 238 238 253 256 253 263 276 292 288 289 295 292 292 294 297 301 305
173 151 197 231 201 103 47 354 347 12 92 80 315 88 24 20 310 288 32 335 299 164 100 161 263 136 97 80 115 39 329 91 124 129 130 137 133 126 136 137 145 158 161 155 159 164 165 162 164 168 168 170 176 187 191 190 201 202 207 214 221 213 223 238 242 235 244 245 257 261 251 254 259 260 264 266 271 282 292 292 288 285 287 291 294
177 179 200 217 91 103 306 172 200 18 79 124 312 43 140 168 258 302 90 289 318 74 81 251 213 187 170 158 95 88 39 38 82 124 135 136 132 131 136 152 162 148 106 156 149 143 173 165 165 171 171 169 173 184 185 190 184 196 200 215 216 220 226 234 233 254 256 256 258 261 263 262 267 269 265 265 266 265 269 275 276 277 277 276 283
179 184 177 227 214 118 225 147 132 122 139 78 358 147 351 109 297 342 359 333 20 21 20 349 43 344 38 81 61 43 31 24 65 135 136 127 124 123 131 136 137 126 154 162 143 146 151 169 164 164 170 168 171 177 181 172 205 173 182 198 192 207 229 229 242 238 245 258 263 265 267 269 271 275 272 275 275 272 274 275 276 277 275 275 274
177 178 179 212 193 229 72 202 119 118 176 135 59 10 36 268 129 62 316 26 52 44 151 320 263 292 67 66 49 56 13 48 4 353 124 121 126 134 135 157 146 145 163 171 152 150 148 162 170 172 172 168 163 162 175 175 197 168 177 197 188 169 222 229 231 230 236 243 245 251 261 271 280 279 277 277 280 270 252 261 273 275 279 279 274
174 177 186 197 225 224 178 163 174 123 123 111 65 14 286 130 192 149 149 231 100 193 100 241 304 47 353 93 111 109 69 41 317 316 146 129 131 144 153 156 138 147 151 144 122 126 153 163 142 117 142 161 161 153 150 161 180 172 183 172 160 190 200 198 211 208 229 249 242 231 266 276 274 267 273 276 276 286 290 276 269 277 283 282 286
178 181 179 195 218 240 206 178 182 146 148 125 155 191 214 223 70 308 194 233 144 100 192 65 69 3 8 59 94 126 123 63 267 253 119 103 135 155 167 144 147 153 131 149 159 137 125 136 128 123 131 141 153 153 151 157 171 165 188 169 163 179 168 147 145 135 127 268 290 17 307 292 296 287 279 286 285 281 283 289 286 295 302 303 304
179 183 182 186 188 218 217 179 184 122 131 158 178 184 192 173 132 178 314 41 302 112 299 85 6 150 133 317 119 78 154 197 194 228 134 144 121 180 109 188 139 153 160 164 159 146 147 139 137 133 140 146 146 150 153 167 158 161 165 154 152 159 151 145 128 138 143 138 111 163 98 44 286 306 323 330 345 341 344 339 329 320 320 328 332
179 185 189 190 190 198 192 182 197 133 146 183 173 137 141 208 165 192 163 309 158 122 123 33 0 219 109 120 192 134 327 318 300 56 94 122 153 158 158 140 139 149 173 171 142 136 129 134 122 127 148 143 145 146 174 157 146 143 140 132 141 143 139 129 133 133 119 107 110 99 106 93 84 80 57 57 31 16 2 357 349 338 335 341 342
186 188 196 190 189 189 196 184 189 166 171 150 197 170 155 192 214 164 188 183 199 126 224 124 161 4 52 146 209 137 142 158 269 178 140 134 159 134 125 124 132 173 186 113 122 124 134 133 135 144 155 139 147 162 141 121 137 132 133 136 143 148 140 137 136 128 126 123 120 122 101 107 104 95 100 87 60 67 66 57 49 50 32 31 23
184 193 193 190 184 191 192 182 158 170 169 167 188 185 164 172 217 168 171 340 1 127 179 143 169 127 12 66 297 137 176 174 158 327 134 165 158 122 88 119 97 41 68 100 114 127 127 141 150 155 150 138 151 134 121 137 137 136 132 137 142 140 140 143 142 135 124 120 116 114 112 106 96 97 88 88 75 82 76 69 67 56 52 55 41
187 191 198 188 184 191 193 184 176 174 166 181 168 195 173 181 179 174 260 138 280 129 112 1 44 72 126 153 195 143 266 148 126 242 317 72 88 120 169 116 106 91 119 124 128 112 126 117 132 154 162 161 155 133 145 151 140 140 150 150 149 151 150 150 148 137 134 118 114 107 104 87 75 70 62 55 75 63 65 65 59 58 56 59 54
196 189 196 186 181 186 189 187 188 171 177 165 171 189 178 203 161 188 152 88 84 76 143 143 69 351 277 272 216 280 80 17 106 105 89 317 21 192 146 147 128 164 156 189 138 159 147 146 159 150 123 117 123 140 152 150 162 157 161 160 157 155 153 156 153 154 146 145 133 127 110 94 73 63 51 50 63 68 59 70 67 58 56 55 54
201 190 187 190 177 182 185 195 192 179 172 173 183 182 173 213 156 137 91 98 116 191 256 150 152 193 246 263 265 70 23 25 346 132 144 108 302 317 173 147 170 180 175 195 159 142 153 150 129 124 136 130 145 151 121 116 111 131 145 160 165 161 158 159 162 166 160 148 150 142 128 121 107 96 81 50 47 58 53 47 56 48 37 38 48
201 189 188 191 177 179 185 192 195 190 164 180 190 170 182 187 136 123 119 130 108 180 242 279 173 179 193 204 333 97 128 291 46 42 64 162 160 253 266 169 188 186 170 139 127 139 151 166 146 154 146 151 170 140 134 138 142 140 154 165 166 164 166 167 171 175 168 167 162 170 178 161 180 187 186 156 322 2 16 354 13 11 359 5 8
187 199 183 192 180 180 187 193 197 194 174 184 190 170 168 180 158 147 144 151 170 176 227 257 277 84 155 132 124 354 26 113 350 198 203 270 228 204 234 160 157 74 129 144 155 157 160 136 149 150 157 164 180 151 147 158 157 150 164 172 173 176 174 179 187 186 184 182 188 193 192 211 211 219 228 235 256 276 286 299 309 316 317 319 322
183 195 189 189 188 186 194 193 195 186 184 202 175 167 174 180 165 159 166 157 159 180 239 250 309 202 122 122 157 178 209 190 185 201 191 219 280 274 195 207 177 173 210 152 165 148 151 159 190 164 153 173 175 170 158 172 168 165 163 174 178 182 186 193 196 202 195 195 202 201 208 212 219 226 238 249 254 271 281 279 284 292 289 293 296
177 185 196 194 191 186 196 193 190 188 187 189 191 179 175 173 166 164 162 178 157 176 210 226 256 151 175 153 172 219 206 235 205 211 163 203 206 259 314 327 280 139 97 22 121 142 154 193 205 138 165 166 167 196 164 159 178 164 160 175 181 182 194 200 203 208 205 209 212 217 216 216 222 227 235 244 254 256 268 273 271 276 280 278 283
174 185 192 196 186 186 192 199 185 188 187 186 192 185 190 157 164 170 164 180 179 167 187 204 231 184 216 207 164 222 210 206 256 227 193 254 127 303 275 293 145 123 187 112 38 13 245 228 136 142 174 153 180 165 151 147 138 158 168 181 183 191 191 203 206 209 213 212 214 218 222 222 225 229 234 241 247 251 255 262 265 265 271 272 270
182 190 192 196 188 187 189 196 188 184 187 188 184 187 200 158 165 175 184 173 182 179 175 200 213 234 189 255 182 204 245 195 216 265 226 183 216 247 280 312 325 155 174 132 177 186 245 251 211 175 157 162 165 147 146 168 150 169 176 179 193 191 196 202 206 211 213 213 213 217 221 222 223 226 231 234 237 242 244 248 254 259 262 270 271
194 188 194 191 192 182 187 196 190 188 190 187 182 184 191 162 168 188 183 170 179 187 179 191 205 210 224 219 259 218 212 225 180 209 264 179 184 203 187 204 291 328 105 109 162 232 264 192 214 191 175 166 148 157 157 190 167 183 183 174 189 200 199 200 209 211 214 215 215 217 220 222 225 228 232 235 239 243 246 247 250 252 257 261 269
190 189 193 194 186 182 184 193 192 190 189 189 185 184 180 176 172 186 193 178 179 188 187 190 208 204 210 217 220 252 225 227 233 179 209 258 178 190 184 160 193 238 189 178 201 218 224 242 227 172 170 159 166 150 178 174 198 177 190 199 176 200 205 206 211 213 214 217 219 221 222 225 228 233 235 240 243 246 248 250 251 254 255 257 261
186 191 189 197 189 183 181 191 192 192 188 189 189 186 180 182 187 185 191 196 173 189 187 185 199 208 203 210 212 221 267 238 245 251 187 220 249 168 154 175 191 217 207 206 209 203 206 217 208 189 165 171 157 157 159 184 162 167 183 208 210 183 203 209 211 213 214 215 220 220 222 226 232 234 238 241 245 248 251 253 253 255 257 258 260
187 190 191 189 197 187 180 185 190 192 189 190 191 189 182 187 192 191 187 198 187 180 188 189 191 203 204 203 206 214 224 260 220 240 238 189 182 216 191 180 181 192 204 196 239 213 230 203 209 177 151 157 134 148 181 197 158 173 174 201 210 227 196 202 208 211 211 213 216 219 220 225 230 234 238 242 245 248 252 254 256 257 259 262 264
198 191 182 186 189 197 187 182 184 190 190 191 189 192 185 189 194 190 190 195 198 180 184 190 196 193 208 211 200 204 207 225 225 212 240 182 179 201 219 201 203 196 200 215 244 256 204 181 222 127 144 146 163 172 194 217 171 183 202 200 221 143 170 196 201 205 209 213 215 216 218 223 228 232 237 240 244 247 247 250 254 258 260 263 264
198 198 189 186 185 193 196 191 188 191 192 193 190 192 189 193 195 192 194 192 203 191 185 187 203 191 198 210 208 199 199 205 222 209 206 198 182 192 222 200 206 202 202 217 218 252 227 208 98 125 146 152 200 195 184 184 173 187 191 198 128 143 142 177 196 201 209 212 214 214 218 221 225 230 233 235 239 239 242 244 247 250 253 256 260
195 197 200 193 185 189 198 200 199 192 192 194 191 190 195 194 202 198 194 190 197 202 189 189 197 201 194 202 210 205 194 204 211 218 202 194 181 198 209 206 204 200 194 205 218 240 284 255 106 149 179 162 192 213 188 175 162 192 198 181 154 180 182 190 195 208 211 213 212 214 217 221 226 231 234 237 236 232 238 242 244 247 250 251 255
197 197 196 200 193 187 195 196 201 196 188 192 191 190 194 197 202 204 202 191 195 202 199 196 193 202 195 196 205 208 198 206 205 209 215 201 192 198 205 210 205 203 195 191 219 224 233 231 219 276 309 179 166 192 191 183 159 181 190 191 196 202 219 228 224 213 214 212 210 212 214 222 226 229 233 235 238 239 241 242 246 249 252 255 256
198 202 194 196 197 194 193 194 195 200 192 190 193 192 193 198 201 205 204 199 195 199 203 202 198 197 200 197 201 202 203 205 207 209 212 215 199 198 202 204 207 204 195 196 191 218 230 241 186 205 229 231 178 179 198 191 182 172 189 198 195 202 207 225 225 254 198 208 206 203 211 219 225 227 229 233 236 237 238 242 247 252 256 259 258
197 198 201 194 194 197 198 195 194 198 198 192 194 196 194 196 201 205 204 203 199 199 205 203 200 199 201 200 201 200 204 206 205 207 211 216 210 190 197 197 202 204 198 189 201 204 216 234 230 206 193 206 212 190 187 175 195 215 196 198 203 207 214 208 212 238 200 201 198 203 210 217 222 227 230 234 236 236 238 243 243 244 247 250 253
204 192 199 199 193 195 199 200 197 196 198 197 195 199 198 196 200 204 206 205 203 200 205 207 202 202 202 204 201 198 200 206 205 206 208 213 213 201 195 195 194 199 204 186 193 201 214 218 235 227 201 192 197 196 194 186 192 206 208 225 216 213 231 258 269 219 179 187 195 203 210 214 223 228 230 233 236 238 242 243 241 242 243 243 242
204 200 193 198 198 195 198 200 201 199 196 198 198 200 202 199 198 203 206 208 207 203 205 207 205 204 205 204 203 199 199 203 206 204 204 209 211 212 202 194 193 191 199 196 184 195 205 225 218 238 214 206 196 205 190 196 201 193 218 221 222 238 236 230 231 256 179 174 188 208 216 222 228 232 232 234 232 236 238 240 237 235 235 235 235
202 204 198 195 198 199 198 200 202 201 200 200 201 201 203 202 199 200 205 206 210 208 208 208 209 209 209 207 205 202 201 202 205 202 200 203 208 212 208 198 191 193 192 202 191 188 198 209 225 233 245 214 203 216 200 187 199 201 193 205 224 213 222 220 232 229 253 190 202 194 198 201 218 220 225 228 229 228 234 235 229 230 232 231 228
203 205 205 195 194 199 199 201 202 202 201 202 202 203 203 204 202 201 204 207 209 212 211 211 212 214 212 211 210 206 204 202 203 202 195 199 201 208 206 199 195 193 196 195 200 197 193 201 210 219 224 231 205 215 196 184 209 219 215 196 205 205 214 224 222 219 226 219 199 211 210 214 214 217 223 219 219 223 228 234 230 228 230 227 208
202 207 208 204 194 197 200 200 201 203 204 204 203 202 202 203 206 205 203 208 210 210 212 214 214 216 217 216 213 212 206 203 201 199 197 192 193 200 202 199 197 195 196 194 196 198 204 202 210 209 210 214 220 199 204 201 205 214 202 209 225 204 205 212 221 216 199 193 218 238 214 196 193 205 182 196 213 214 229 229 229 219 218 203 203
196 201 207 210 201 193 195 197 200 204 207 207 203 198 197 202 206 209 206 208 211 212 210 213 216 216 219 220 218 211 207 202 198 197 195 192 195 196 197 194 196 195 196 197 195 199 199 204 208 202 210 213 208 210 208 209 202 196 205 200 216 216 213 217 216 204 182 192 191 220 229 243 250 227 228 226 214 201 219 216 207 204 188 191 199
201 195 200 206 212 199 194 196 199 204 207 208 196 194 196 199 202 207 209 207 209 214 215 213 215 216 218 220 225 209 205 200 199 195 195 194 194 198 198 198 196 194 194 196 202 197 200 207 203 206 209 211 212 208 210 206 197 194 205 204 205 203 207 201 229 259 168 175 197 211 236 229 228 240 224 226 227 242 212 167 169 167 176 189 192
202 198 197 204 209 212 199 197 202 204 208 206 194 194 196 198 199 204 208 210 208 211 217 217 216 216 216 217 218 222 205 197 192 196 196 195 195 198 200 199 199 201 198 195 195 199 200 203 204 207 206 210 209 209 207 201 199 194 195 200 202 198 197 200 205 220 195 178 192 204 238 217 199 221 236 227 231 218 243 166 170 175 182 185 184
199 203 202 199 205 211 214 200 203 205 211 204 194 194 197 199 201 203 209 209 211 213 214 216 218 215 215 216 219 216 217 196 197 196 193 198 198 200 201 200 202 200 203 204 201 201 197 202 205 206 205 204 209 209 206 201 183 196 187 196 200 194 188 192 200 202 185 186 179 209 231 216 204 216 226 228 221 230 199 168 187 187 177 179 184
202 204 205 204 203 207 213 215 208 206 208 201 193 195 198 200 202 204 214 210 213 216 215 215 218 218 215 216 217 218 218 197 197 198 198 198 194 198 200 200 205 205 203 204 205 205 204 206 204 210 205 203 211 206 201 193 187 194 187 196 189 187 191 206 196 208 179 178 187 195 227 223 214 218 237 245 221 223 186 194 189 174 178 182 185
202 203 205 206 206 206 210 215 220 217 212 196 189 194 198 200 203 203 214 216 217 216 217 217 218 218 219 219 218 219 217 212 198 200 199 201 200 201 202 207 208 206 205 205 203 202 207 212 210 212 209 207 213 203 198 197 200 193 182 184 179 186 184 175 200 191 160 192 190 181 227 211 206 217 229 227 247 254 217 162 174 181 179 185 182
206 204 207 210 210 210 211 213 219 224 221 195 191 192 196 200 200 199 212 218 222 223 221 221 218 218 219 219 221 221 218 220 209 200 200 198 202 202 205 209 210 210 210 212 208 206 207 209 212 209 206 209 200 206 203 194 190 168 155 151 155 159 167 177 208 200 207 199 199 191 212 217 210 225 230 212 218 231 160 148 180 180 185 174 172
206 205 207 209 211 212 214 214 219 223 227 204 191 194 196 198 194 198 205 214 223 228 230 224 222 221 220 219 220 222 218 220 212 197 202 191 202 206 208 208 209 210 216 212 209 207 209 211 211 213 209 204 204 202 200 195 167 163 152 171 182 171 172 195 211 210 218 207 198 199 193 209 206 209 234 230 204 170 147 208 170 185 165 172 188
212 211 210 212 213 215 217 219 216 223 227 212 191 197 197 195 192 190 203 212 222 228 234 234 231 231 226 220 218 221 220 220 214 197 197 191 201 204 206 211 213 215 217 212 202 208 208 207 206 208 202 174 179 187 193 179 164 161 172 187 187 178 184 193 210 210 223 217 221 170 185 211 191 202 220 209 156 178 221 243 134 169 180 188 200
216 215 208 209 212 215 220 222 221 222 228 220 192 196 197 196 195 203 205 212 222 228 230 235 237 239 239 229 220 221 221 220 215 200 192 193 205 201 202 208 214 217 218 207 209 202 201 202 210 201 206 197 186 176 185 179 168 171 178 182 187 189 191 197 209 210 228 227 221 157 181 206 198 208 180 171 215 225 190 143 152 162 188 192 212